Startseite
Über Mich
AHP4
Galerie
Sehschlangen
Tourenbuch
Bookmarks
Elektronik
Bewertung
Geschichten
[Tagesmessung] [Jahreswerte] [Information]

Messwerte vom 01.04.2022

Die letzten Messwerte von 23:58:48 Uhr:
KategorieMesswert
Temperatur [°C]1
Luftdruck [mBar]995
Sonneneinstrahlung0
Wind [km/h]6 aus Ost
Niederschlag [l/m²]0
rel.Luftfeucht.62%
CO2 [ppm]560

Diagramme
Messwerte vom 01.04.2022
Tagesaggregation
KategorieMinimumMaximumSchnittSumme
Temperatur [°C]-262.3396
Luftdruck [mBar]987995990.6021
Sonneneinstrahlung236109.2479
Wind [km/h]26
rF [%]34.296.663.82
Niederschlag [l/m²]1.2875
CO2 [ppm]401644544.0
Einordnung alsFrosttag
Kalter Tag

Messungen an benachbarten Tagen: Zur Jahresaggregation 2022
Tabelle aller Messwerte
UhrzeitTemperatur [°C]Luftdruck [mBar]SonneWind [km/h]RichtungRegen [l/m²]rF [%]CO2 [ppm]
00:01:46 3 988 0 3 N 0 53.7 463
00:04:45 3 988 0 11 N 0 53.7 465
00:07:45 3 987 0 8 0 53.7 471
00:10:47 3 987 0 2 0 53.6 471
00:13:47 3 987 0 9 NW 0 53.6 472
00:16:49 3 987 0 6 NW 0 53.6 468
00:19:45 3 987 0 9 N 0 53.5 466
00:22:46 3 988 0 3 O 0 53.4 460
00:25:49 3 987 0 11 NO 0 53.4 468
00:28:43 3 987 0 4 0 53.4 463
00:31:48 3 987 0 3 S 0 53.2 460
00:34:45 3 987 0 3 O 0 53 454
00:37:48 3 987 0 2 NO 0 52.9 457
00:40:46 3 987 0 1 N 0 53 465
00:43:45 3 987 0 4 NO 0 52.8 471
00:46:45 3 987 0 5 NO 0 52.6 475
00:49:44 3 987 0 4 N 0 52.7 469
00:52:47 3 987 0 3 NO 0 52.6 468
00:55:47 3 988 0 3 O 0 52.3 471
00:58:46 3 988 0 5 0 52.1 468
01:01:45 3 988 0 4 N 0 51.9 466
01:04:50 3 988 0 0 NW 0 52 465
01:07:46 3 987 0 1 NW 0 52.3 459
01:10:47 3 988 0 5 NW 0 52.4 465
01:13:47 3 988 0 6 NO 0 52.4 471
01:16:44 3 987 0 6 W 0 52.7 472
01:19:46 3 988 0 8 NO 0 54.4 466
01:22:48 3 988 0 8 NO 0 57.8 463
01:25:46 3 987 0 4 N 0 58.9 468
01:28:48 2 987 0 9 NO 0 60.8 463
01:31:47 2 987 0 15 N 0 62 468
01:34:47 2 988 0 6 NW 0 63.1 469
01:37:47 2 988 0 5 NO 0 63.9 472
01:40:47 2 987 0 14 NO 0 65.2 474
01:43:46 2 987 0 9 O 0 66.4 472
01:46:49 2 988 0 12 N 0 68 469
01:49:44 2 987 0 3 N 0 69.1 465
01:52:46 2 987 0 7 N 0 70.5 463
01:55:46 1 988 0 8 N 0 73.2 469
01:58:43 1 987 0 6 N 0 74.2 471
02:01:46 1 987 0 12 W 0 76.1 469
02:04:45 1 988 0 6 0 77.8 466
02:07:49 1 988 0 14 O 0 79.8 460
02:10:46 1 988 0 5 O 0 81 463
02:13:45 1 988 0 9 N 0 83.5 457
02:16:46 1 987 0 6 O 0 84.8 460
02:19:47 0 988 0 10 N 0 86.8 460
02:22:49 0 988 0 2 N 0 89.3 455
02:25:46 0 987 0 6 SW 0 90.3 460
02:28:47 0 988 0 6 NO 0 91.2 464
02:31:45 0 987 0 4 N 0 91.9 472
02:34:45 0 988 0 6 O 0 92.3 472
02:37:47 0 988 0 2 NO 0 92.6 475
02:40:47 0 988 0 1 NO 0 93.2 475
02:43:46 0 988 0 4 SO 0 93.5 471
02:46:46 0 988 0 3 N 0 93.8 466
02:49:46 0 988 0 7 N 0 94.2 466
02:52:47 0 987 0 6 N 0 94.6 460
02:55:49 0 988 0 5 NO 0 94.9 467
02:58:48 0 988 0 4 SW 0 95 466
03:01:48 0 988 0 8 N 0 95.7 471
03:04:46 0 988 0 2 NW 0 96 468
03:07:47 0 988 0 6 SW 0 96.1 468
03:10:47 0 987 0 3 N 0 96.6 458
03:13:49 0 988 0 3 NW 0 96.6 466
03:16:47 0 988 0 7 N 0 96.6 466
03:19:47 0 988 0 3 W 0 96.6 468
03:22:46 0 988 0 2 N 0 96.6 472
03:25:47 0 988 0 3 NO 0 96.6 471
03:28:47 0 988 0 3 NO 0 96.6 480
03:31:47 0 988 0 5 NO 0 96.6 478
03:34:49 -1 988 0 3 NW 0 96.6 478
03:37:46 -1 987 0 5 SO 0 96.6 474
03:40:47 -1 988 0 2 N 0 96.6 476
03:43:48 -1 988 0 7 W 0 96.6 483
03:46:48 -1 988 0 8 W 0 96.6 483
03:49:48 -1 988 0 2 N 0 96.6 481
03:52:46 -1 987 0 1 NO 0 96.6 483
03:55:48 -1 988 0 3 NO 0 96.6 480
03:58:46 -1 988 0 6 S 0 96.6 480
04:01:47 -1 987 0 5 NO 0 96.6 478
04:04:47 -1 988 0 3 NO 0 96.6 475
04:07:45 -1 988 0 4 O 0 96.6 475
04:10:46 -1 988 0 1 O 0 96.6 475
04:13:47 -1 987 0 2 SW 0 96.6 487
04:16:49 -1 988 0 6 NW 0 96.6 483
04:19:46 -1 988 0 3 NO 0 96.6 480
04:22:49 -1 988 0 2 NW 0 96.6 483
04:25:48 -1 988 0 5 S 0 96.6 491
04:28:45 -1 988 0 3 W 0 96.6 489
04:31:45 -1 987 0 6 O 0 96.6 491
04:34:47 -1 988 0 2 SO 0 96.6 483
04:37:47 -1 988 0 7 NO 0 96.6 477
04:40:46 -1 988 0 3 O 0 96.6 481
04:43:49 -1 988 0 0 NO 0 96.6 483
04:46:45 -1 988 0 3 S 0 96.6 477
04:49:46 -1 988 0 4 N 0 96.6 474
04:52:46 -1 988 0 3 W 0 96.6 478
04:55:47 -1 988 0 2 NO 0 96.6 478
04:58:47 -1 988 0 4 N 0 96.6 480
05:01:47 -1 988 0 4 O 0 96.6 483
05:04:46 -1 988 0 1 O 0 96.6 488
05:07:47 -1 988 0 5 N 0 96.6 490
05:10:48 -1 988 0 2 N 0 96.6 492
05:13:45 -1 988 0 3 SW 0 96.6 494
05:16:48 -1 988 0 3 SO 0 96.6 494
05:19:48 -1 988 0 3 N 0 96.6 489
05:22:48 -1 988 0 2 O 0 96.6 489
05:25:47 -1 988 0 3 NW 0 96.6 481
05:28:47 -1 988 0 5 SO 0 96.6 473
05:31:49 -1 988 0 5 NO 0 96.6 468
05:34:48 -1 988 0 1 NW 0 96.6 478
05:37:47 -1 988 0 11 O 0 96.6 475
05:40:46 -1 988 0 5 W 0 96.6 480
05:43:49 -1 989 0 8 N 0 96.6 482
05:46:47 -1 988 0 5 NW 0 96.6 486
05:49:47 -1 988 0 2 NO 0 96.6 489
05:52:46 -1 988 0 13 N 0 96.6 492
05:55:49 -1 988 0 14 NW 0 96.6 492
05:58:49 -1 988 0 5 N 0 96.6 486
06:01:48 -1 988 0 6 N 0 96.6 480
06:04:46 -1 989 0 5 NO 0 96.6 480
06:07:49 -1 988 0 1 N 0 96.6 488
06:10:48 -1 988 0 6 NO 0 96.6 485
06:13:47 -1 989 0 2 SO 0 96.6 486
06:16:48 -1 988 0 4 NO 0 96.6 480
06:19:46 -1 988 0 12 N 0 96.6 483
06:22:48 -1 989 0 2 NO 0 96.6 484
06:25:47 -1 988 0 3 NO 0 96.6 489
06:28:48 -1 988 0 5 W 0 96.6 488
06:31:45 -1 988 3 6 N 0 96.6 491
06:34:49 -1 989 5 3 NW 0 96.6 486
06:37:46 -1 989 8 4 NO 0 96.6 480
06:40:46 -1 989 11 1 N 0 96.6 483
06:43:46 -1 989 16 4 N 0 96.6 483
06:46:46 -2 990 22 11 N 0 96.6 486
06:49:48 -2 988 28 8 NO 0 96.6 488
06:52:50 -2 989 33 3 NW 0 96.6 495
06:55:46 -2 988 41 8 O 0 96.6 504
06:58:47 -2 989 51 5 N 0 96.6 525
07:01:46 -2 989 61 1 N 0 96.6 542
07:04:47 -2 989 71 3 O 0 96.6 525
07:07:46 -2 989 80 5 W 0 96.6 515
07:10:48 -2 989 88 3 NW 0 96.6 512
07:13:47 -2 988 96 1 O 0 96.6 492
07:16:45 -2 989 105 2 NO 0 96.6 503
07:19:48 -2 989 115 4 NO 0 96.6 512
07:22:48 -2 988 123 3 N 0 96.6 524
07:25:48 -2 989 131 2 SO 0 96.6 536
07:28:45 -2 989 136 1 N 0 96.6 533
07:31:48 -2 989 141 4 SO 0 96.6 533
07:34:49 -1 989 147 2 SW 0 96.6 533
07:37:45 -1 990 152 4 0 96.6 527
07:40:46 -1 989 157 2 N 0 96.6 524
07:43:47 -1 990 164 2 O 0 96.6 539
07:46:48 -1 990 167 7 N 0 96.5 544
07:49:46 -1 990 171 6 N 0 96 550
07:52:46 -1 990 174 0 N 0 94.9 550
07:55:46 -1 989 177 2 NO 0 94.9 553
07:58:47 -1 989 178 1 NW 0 95.1 553
08:01:48 -1 989 180 8 0 92.2 550
08:04:48 -1 989 182 4 NW 0 91.7 553
08:07:48 -1 989 184 5 O 0 90.8 562
08:10:50 -1 990 185 12 NW 0 90 565
08:13:52 -1 990 186 4 NO 0 88.6 560
08:16:48 -1 990 187 4 N 0 87.8 564
08:19:48 -1 990 187 2 NO 0 87.7 559
08:22:49 -1 990 188 2 NO 0 87.4 562
08:25:47 -1 990 190 4 O 0 85.9 563
08:28:50 -1 991 190 6 NO 0 84.2 562
08:31:48 -1 990 191 10 NO 0 84.2 574
08:34:52 -1 990 192 10 NW 0 84.3 565
08:37:48 -1 990 193 3 N 0 83.5 556
08:40:48 -1 989 195 3 N 0 82.8 550
08:43:48 -1 991 197 2 W 0 82.5 555
08:46:48 -1 991 200 8 NO 0 81 559
08:49:49 0 990 202 2 SO 0 79.4 558
08:52:47 0 991 204 5 NO 0 78.9 567
08:55:46 0 990 206 4 NO 0 77 573
08:58:46 0 990 207 3 O 0 75.3 585
09:01:47 0 989 207 8 O 0 74.5 575
09:04:46 0 990 206 3 S 0 73.1 565
09:07:48 0 990 207 14 0 71.9 568
09:10:48 0 990 208 2 NW 0 70.3 573
09:13:48 0 990 209 5 SO 0 70.1 574
09:16:46 0 991 209 3 N 0 69.6 577
09:19:48 1 990 210 10 N 0 69.2 577
09:22:47 1 990 212 5 N 0 69.6 585
09:25:47 1 991 213 0 NO 0 69.8 586
09:28:48 1 990 214 4 N 0 68.6 589
09:31:50 1 990 216 3 SO 0 67.4 594
09:34:46 1 990 217 3 NW 0 67.3 582
09:37:49 1 991 218 3 NW 0 68.1 586
09:40:50 1 990 218 5 SO 0 66.4 591
09:43:49 1 991 217 1 SO 0 66.5 603
09:46:49 1 991 218 4 NO 0 66.6 597
09:49:46 1 990 219 0 N 0 67 594
09:52:46 1 990 219 3 SO 0 67.1 603
09:55:46 1 990 220 4 O 0 65.8 600
09:58:47 2 990 219 1 O 0 65.8 604
10:01:48 2 990 220 4 O 0 65.7 597
10:04:44 2 991 221 3 O 0 64.7 612
10:07:47 2 991 221 0 S 0 63.9 611
10:10:49 2 990 222 7 SO 0 64.8 606
10:13:49 2 990 222 8 NO 0 63.8 601
10:16:47 2 990 223 5 NO 0 64 600
10:19:48 2 991 222 9 N 0 63.4 602
10:22:46 2 991 223 4 N 0 62.4 600
10:25:48 2 991 223 3 NW 0 61.9 597
10:28:48 2 991 224 3 N 0 62 597
10:31:49 2 991 225 4 NO 0 62.2 600
10:34:47 2 991 225 5 N 0 62.5 608
10:37:46 3 991 226 5 N 0 61.9 606
10:40:48 3 991 226 9 NO 0 59.5 611
10:43:49 3 991 226 12 SW 0 58.8 615
10:46:49 3 991 226 13 N 0 57.7 612
10:49:47 3 991 226 3 N 0 57.6 606
10:52:46 3 991 225 2 W 0 59 607
10:55:48 3 991 226 2 N 0 58.7 614
10:58:48 3 991 226 4 SO 0 58.5 621
11:01:48 3 991 226 6 SO 0 57 612
11:04:47 3 991 226 6 O 0 57.1 603
11:07:48 3 991 226 9 SW 0 55.7 597
11:10:47 3 991 225 1 S 0 56.2 597
11:13:47 3 991 225 8 N 0 55.7 604
11:16:48 3 991 227 17 NW 0 55.1 600
11:19:47 3 991 227 5 N 0 55.6 609
11:22:47 3 991 227 5 W 0 55.4 607
11:25:45 4 991 228 4 O 0 55 606
11:28:49 4 991 228 4 NO 0 55.6 604
11:31:47 4 991 228 6 N 0 55.5 604
11:34:46 4 991 229 5 O 0 55.5 610
11:37:47 4 990 229 12 N 0 54.6 621
11:40:46 4 991 229 9 O 0 52.2 631
11:43:46 4 991 229 8 NW 0.2575 51.5 627
11:46:49 4 991 229 4 O 0 51.8 614
11:49:47 4 991 229 14 NW 0.2575 51.1 609
11:52:46 4 991 229 4 N 0 51 603
11:55:47 4 991 228 11 N 0 50.1 606
11:58:47 4 991 228 8 SW 0.2575 49.2 609
12:01:49 4 991 228 13 NO 0 48.7 603
12:04:49 4 991 228 5 SO 0 48.4 599
12:07:50 4 991 228 15 NO 0 48.9 609
12:10:48 4 991 228 1 O 0 49.8 627
12:13:47 4 991 228 7 NO 0.2575 50.1 624
12:16:47 4 991 228 11 S 0 49.2 621
12:19:47 4 991 227 11 W 0 48.3 621
12:22:49 4 991 226 7 NO 0 47.8 627
12:25:46 4 991 226 8 O 0 48 632
12:28:47 4 991 225 11 SW 0 47.9 639
12:31:47 4 991 225 11 N 0 46.3 644
12:34:46 4 991 226 2 O 0 47.3 635
12:37:49 5 991 227 3 NW 0 47.7 625
12:40:48 5 991 226 19 SO 0 46.8 617
12:43:49 5 991 227 15 N 0 46 620
12:46:47 5 991 226 4 NW 0 46.5 624
12:49:48 5 991 227 11 N 0 47 621
12:52:46 5 991 227 16 0 45.1 615
12:55:48 5 991 227 8 NW 0 44.5 618
12:58:47 5 991 227 12 O 0 45.6 614
13:01:50 5 991 227 6 NO 0 44.9 618
13:04:48 5 991 227 7 NW 0 45.8 614
13:07:50 5 991 227 6 O 0 45.6 625
13:10:47 5 991 227 15 W 0 45.1 623
13:13:49 5 991 227 21 NO 0 44.8 620
13:16:45 5 991 227 5 N 0 43.5 610
13:19:47 5 991 227 10 N 0 44.6 612
13:22:48 5 991 227 8 NW 0 44.1 603
13:25:45 5 991 226 13 N 0 42.9 594
13:28:46 5 991 227 2 O 0 43.6 605
13:31:45 5 991 227 5 N 0 44.2 601
13:34:47 5 991 228 6 NO 0 42.1 615
13:37:49 5 991 228 3 SW 0 42.9 612
13:40:47 5 991 228 7 NO 0 42.3 618
13:43:47 5 991 228 17 SO 0 40.8 610
13:46:48 5 991 228 26 N 0 41.6 612
13:49:47 5 991 228 14 N 0 41.6 612
13:52:31 4 991 229 14 N 0 40 615
13:55:48 5 991 230 13 NW 0 41.7 598
13:58:47 5 991 230 7 SW 0 40.2 593
14:01:47 5 991 230 10 N 0 38.7 591
14:04:47 6 991 230 5 SO 0 38.4 598
14:07:48 6 991 230 9 NO 0 39.4 605
14:10:45 6 991 230 5 NO 0 38.7 607
14:13:46 6 991 231 11 N 0 39.9 603
14:16:48 6 991 231 9 NW 0 36.9 594
14:19:46 6 991 232 4 SW 0.2575 36.5 588
14:22:50 6 991 232 14 NW 0 37.3 578
14:25:45 6 991 232 4 N 0 36.6 577
14:28:46 6 991 232 5 O 0 37 577
14:31:50 6 991 232 12 N 0 37.8 576
14:34:50 6 991 232 7 NO 0 36.9 577
14:37:49 6 991 232 7 SO 0 36.9 585
14:40:47 6 991 232 15 N 0 37.5 585
14:43:47 6 991 233 11 O 0 36.8 575
14:46:49 6 991 233 7 NO 0 36.8 571
14:49:48 6 991 234 4 NO 0 37.5 575
14:52:47 6 991 234 6 NW 0 37.6 592
14:55:46 6 991 235 3 W 0 37.9 594
14:58:47 6 991 235 13 N 0 34.4 582
15:01:48 6 991 235 19 NW 0 34.2 572
15:04:48 6 991 234 7 NO 0 34.7 568
15:07:50 6 991 234 22 NW 0 36.2 579
15:10:46 6 991 236 6 W 0 37.3 577
15:13:46 6 991 235 7 N 0 37.6 577
15:16:47 6 991 236 11 O 0 36.3 579
15:19:47 6 991 236 7 O 0 36 580
15:22:46 6 991 235 6 NO 0 37.4 579
15:25:47 6 991 234 6 NO 0 38.4 586
15:28:47 6 991 233 6 NW 0 38.6 579
15:31:48 6 991 233 14 W 0 37.7 571
15:34:46 6 991 234 3 N 0 37.9 568
15:37:45 6 991 235 6 O 0 36.8 573
15:40:48 6 991 235 12 N 0 37.1 575
15:43:48 6 991 234 10 N 0 36.8 589
15:46:48 6 991 235 14 NW 0 36.4 580
15:49:49 6 991 236 14 N 0 36.7 577
15:52:49 6 991 236 5 SW 0 36.8 571
15:55:46 6 991 234 5 W 0 37.5 571
15:58:47 6 991 234 9 SO 0 37 574
16:01:46 6 991 235 11 0 37.6 574
16:04:46 6 991 236 7 O 0 36.8 581
16:07:50 6 991 236 12 NW 0 37.1 588
16:10:46 6 991 233 3 N 0 37.4 589
16:13:46 6 991 231 5 O 0 38.1 589
16:16:47 6 991 233 14 O 0 38.5 519
16:19:46 6 991 234 14 O 0 37.7 401
16:22:47 6 991 232 6 N 0 37.5 407
16:25:49 6 991 234 10 SO 0 38.5 454
16:28:48 6 991 235 8 O 0 38.6 498
16:31:49 6 991 234 9 SO 0 38.1 492
16:34:48 6 991 234 8 NW 0 37.9 468
16:37:46 6 991 234 11 S 0 38.5 451
16:40:48 6 991 232 14 NO 0 39.6 457
16:43:47 6 991 228 9 N 0 40.1 466
16:46:47 6 991 226 10 N 0 40.3 466
16:49:46 6 991 224 2 O 0 40.1 469
16:52:46 6 991 224 10 N 0 40.4 465
16:55:49 6 991 222 8 NW 0 40.3 471
16:58:46 6 991 220 8 W 0 42.5 471
17:01:48 6 991 217 5 N 0 43 474
17:04:48 6 991 215 15 N 0 43.2 468
17:07:49 6 991 214 12 NO 0 44.1 466
17:10:47 6 991 213 10 O 0 45.7 466
17:13:47 6 991 213 8 S 0 48 476
17:16:47 6 991 212 3 W 0 48.4 486
17:19:48 5 991 210 19 O 0 49.2 486
17:22:47 5 991 209 18 N 0 47.1 495
17:25:49 5 991 209 9 S 0 47 492
17:28:47 5 991 209 9 O 0 47.6 492
17:31:43 5 991 209 7 0 47.7 492
17:34:48 5 991 208 7 0 48.8 500
17:37:44 5 991 208 4 0 48.7 506
17:40:48 5 991 209 9 NW 0 47.7 506
17:43:47 5 991 209 7 N 0 46.8 510
17:46:47 5 991 209 5 O 0 47.3 507
17:49:48 5 991 208 10 N 0 47.6 509
17:52:48 5 991 206 6 NO 0 47 515
17:55:48 5 991 202 13 SW 0 47.1 527
17:58:48 5 991 199 12 N 0 46.9 533
18:01:46 5 991 197 4 NO 0 46.2 533
18:04:49 5 991 195 7 NO 0 46.9 530
18:07:47 5 991 195 3 SO 0 46.8 539
18:10:46 5 991 192 10 O 0 47.7 543
18:13:48 5 991 190 19 SW 0 48.3 542
18:16:46 5 991 187 10 NO 0 47.9 536
18:19:49 5 991 184 4 NW 0 48.8 530
18:22:48 5 991 182 8 S 0 49 525
18:25:48 5 991 179 9 NO 0 49 532
18:28:49 4 991 177 11 N 0 48.5 530
18:31:48 4 991 177 12 SO 0 48.9 532
18:34:47 4 992 175 5 NW 0 49.3 530
18:37:46 4 992 173 10 W 0 49.3 533
18:40:49 4 992 170 10 S 0 49.4 545
18:43:49 4 992 168 5 NO 0 49.5 556
18:46:49 4 992 165 3 N 0 50 548
18:49:47 4 992 162 12 N 0 49.9 550
18:52:47 4 991 159 5 NW 0 50.3 562
18:55:46 4 991 156 12 N 0 50.4 562
18:58:49 4 992 152 3 NO 0 49.6 568
19:01:49 4 991 148 11 NW 0 49.7 567
19:04:47 4 992 143 6 NO 0 49.2 571
19:07:47 4 992 137 8 NW 0 50.3 571
19:10:49 4 992 131 4 NO 0 50.6 572
19:13:49 4 992 125 8 NO 0 50.2 574
19:16:46 4 992 119 12 0 49.5 571
19:19:46 4 992 113 7 O 0 49.3 574
19:22:49 4 992 106 14 S 0 49.3 570
19:25:45 4 993 98 7 0 49.5 562
19:28:48 4 993 89 10 NO 0 50 565
19:31:53 4 992 80 12 O 0 50.3 569
19:34:44 4 992 71 8 N 0 50 573
19:37:45 4 993 62 11 N 0 50.1 576
19:40:45 4 993 54 2 O 0 51 572
19:43:44 4 993 45 7 O 0 51.2 567
19:46:49 4 992 37 8 NW 0 50.9 568
19:49:45 3 993 30 2 O 0 50.8 568
19:52:47 3 992 24 4 NW 0 50.8 565
19:55:46 3 992 19 8 NO 0 51.1 559
19:58:46 3 993 14 13 NO 0 51.2 555
20:01:47 3 993 10 14 NW 0 50.7 564
20:04:45 3 994 7 10 W 0 50.6 573
20:07:45 3 993 4 9 O 0 51.1 577
20:10:47 3 993 3 6 NW 0 51.3 579
20:13:48 3 994 0 16 NO 0 51.1 585
20:16:44 3 993 0 4 O 0 50.5 585
20:19:46 3 994 0 3 S 0 50.5 579
20:22:44 3 994 0 9 SO 0 50.6 577
20:25:47 3 994 0 6 SO 0 51.5 572
20:28:47 3 995 0 7 W 0 51.6 580
20:31:47 3 994 0 2 SO 0 51.7 579
20:34:47 3 994 0 11 N 0 52 586
20:37:45 3 994 0 7 O 0 52.6 582
20:40:46 3 994 0 7 O 0 53.1 580
20:43:48 3 995 0 10 NO 0 52.4 591
20:46:45 3 995 0 7 O 0 52.3 601
20:49:47 3 994 0 11 SO 0 52.8 603
20:52:47 3 994 0 3 N 0 53.1 594
20:55:45 3 995 0 3 N 0 53.7 591
20:58:47 3 994 0 6 SO 0 53.8 587
21:01:47 3 995 0 7 NW 0 53.4 586
21:04:46 3 994 0 9 O 0 53.7 579
21:07:49 3 994 0 12 N 0 53.9 586
21:10:47 3 995 0 2 NW 0 54 583
21:13:47 3 995 0 7 NW 0 54.3 589
21:16:48 3 995 0 4 NW 0 54.6 589
21:19:47 3 995 0 17 NO 0 54.7 588
21:22:46 3 995 0 2 SO 0 54.7 583
21:25:47 3 995 0 17 S 0 55.1 583
21:28:46 2 995 0 6 S 0 55.6 589
21:31:47 2 995 0 11 W 0 56 586
21:34:46 2 995 0 6 N 0 55.9 592
21:37:46 2 995 0 9 NW 0 56 594
21:40:50 2 995 0 4 NW 0 56.3 592
21:43:44 2 995 0 6 0 56.9 592
21:46:47 2 995 0 8 NO 0 57.3 589
21:49:46 2 995 0 1 N 0 57.5 589
21:52:46 2 995 0 18 NW 0 57.7 589
21:55:46 2 995 0 6 NO 0 57.6 595
21:58:48 2 995 0 15 NW 0 57.8 591
22:01:47 2 995 0 6 O 0 56.9 597
22:04:48 2 995 0 6 NO 0 56.7 598
22:07:47 2 995 0 11 N 0 56.7 600
22:10:48 2 995 0 3 SO 0 57 600
22:13:45 2 995 0 6 0 57.5 595
22:16:47 2 995 0 3 NW 0 58 598
22:19:46 2 995 0 3 N 0 58.1 597
22:22:48 2 995 0 3 NO 0 57.9 586
22:25:46 2 995 0 4 N 0 58 591
22:28:49 2 995 0 10 NO 0 58.1 589
22:31:50 2 995 0 2 S 0 58.6 595
22:34:45 2 995 0 4 N 0 58.6 595
22:37:48 2 995 0 9 NO 0 58.9 597
22:40:46 2 995 0 18 W 0 59 591
22:43:47 2 995 0 10 0 59.3 585
22:46:47 2 995 0 4 NO 0 60.3 583
22:49:45 2 995 0 6 NO 0 60.6 586
22:52:45 2 995 0 2 N 0 60.8 589
22:55:46 2 995 0 3 N 0 60.9 595
22:58:46 2 995 0 6 NO 0 61.1 595
23:01:48 2 995 0 17 NO 0 60.7 592
23:04:47 2 995 0 5 NO 0 60.8 594
23:07:46 2 995 0 8 N 0 61.2 587
23:10:46 2 995 0 4 NO 0 61.4 583
23:13:44 2 995 0 9 N 0 60.9 582
23:16:44 2 995 0 14 0 61.1 580
23:19:47 2 995 0 9 NO 0 60.6 580
23:22:46 2 995 0 5 O 0 60.6 578
23:25:46 2 995 0 4 O 0 60.8 583
23:28:45 2 995 0 5 N 0 60.5 577
23:31:45 1 995 0 5 O 0 61 574
23:34:45 1 995 0 4 N 0 61.1 577
23:37:46 1 995 0 14 O 0 60.9 583
23:40:45 1 995 0 5 NO 0 60.7 577
23:43:48 1 995 0 10 N 0 61.1 575
23:46:46 1 995 0 9 SW 0 61.2 577
23:49:45 1 995 0 3 SW 0 61.4 574
23:52:46 1 995 0 1 SW 0 61.2 566
23:55:44 1 995 0 2 O 0 62.1 564
23:58:48 1 995 0 6 O 0 62 560

Letzte Änderung : 22-Jul-2022
Copyright Jens Köhler, Wolfsburg, Obere Dorfstraße 10d